Погода в Учарале

Хотите узнать прогноз погоды в Учарале? Тогда Вам сюда: Погода в Учарале

Поиск расширенной информации на нашем сайте:

Полезная информация:

Новости сайта



02.01.2020
Опубликован Долгосрочный прогноз погоды по городам России и ближнего зарубежья на январь 2020 года.
Карты: Прогноз на январь и февраль 2020 года, Сравнение прогнозируемой аномалии приземной температуры воздуха на январь 2020 года по разным моделям.




Погода в Учарале - сегодня

Время (UTC), дата Ветер
(°,м/с) 
Видим.   Явления Облачность Т
(°С)
Тd
(°С)
f(%) Тe
(°С)
Pmin
(гПа)
dP
(гПа)
Po
(мм)
O2
(г/м3)
Тmin Tmax R s Состояние
почвы
09 22.10.21 240 (ЮЗ) 20000 м  в посл. час ливневой дождь  10/10 600 м кучево-дожд. 
[Cb cap]
+4.4 +2.4 87 +3  1032.8  739  293           
12 22.10.21 220 (ЮЗ) 20000 м  {ливн. осадки}  10/10 600 м кучево-дожд. 
[Cb cap]
+5.1 +1.6 78 +5  1034.2  1.5  740  292           
15 22.10.21 220 (ЮЗ) 20000 м    10/10 600 м кучево-дожд. 
[Cb cap]
+4.8 -0.5 69 +4  1036.3  741  294    +5.3     
18 22.10.21 250 (З) 20000 м    10/10 600 м кучево-дожд. 
[Cb cap]
+4.3 +0.7 77 +5  1037.5  0.9  742  294    +5.3     
21 22.10.21 260 (З) 20000 м    10/10 600 м кучево-дожд. 
[Cb cap]
+3.7 +0.3 78 +5  1038.2  0.6  743  295           
00 23.10.21 240 (ЮЗ) 1{13}  20000 м    4/0 верхняя 
[Cs]
+1.8 -1.6 78 +3  1039.6  1.1  743  298           
03 23.10.21 240 (ЮЗ) 20000 м    ясно 
+3.5 -2.8 63 +4  1039.9  0.5             
06 23.10.21 230 (ЮЗ) 20000 м    ясно 
+9 -7.5 30 +9  1038.3  -0.7  743  291  -0.4         
09 23.10.21 110 (В) 20000 м    4/0 средняя 
[Ac trans]
+10.1 -5.7 32 +10  1036.8  -1.2  742  289           
12 23.10.21 110 (В) 20000 м    9/9 1000 м 
[Sc]
+6.4 -5 44 +6  1037.5  0.1  742  293           
15 23.10.21 140 (ЮВ) 20000 м    ясно 
+4.6 -5.8 47 +4  1037.9  0.1  743  295    +10.8       
18 23.10.21 140 (ЮВ) 20000 м    9/9 1000 м 
[Sc]
+5.5 -7.3 39 +5  1037.4  -0.4  742  294    +10.8       
21 23.10.21 140 (ЮВ) 20000 м    10/10 1000 м 
[Sc]
+5.6 -5 46 +5  1036.4  -0.9  742  293           
00 24.10.21 тихо () {06}  20000 м    ясно 
+0.2 -6.9 59 1036.6  -1  741  299           
03 24.10.21 090 (В) 20000 м    ясно 
+5.5 -2.2 58 +6  1035.3  741  293           
06 24.10.21 110 (В) 20000 м    ясно 
+10.6 -0.9 45 +10  1032.2  -2.2  739  287  -1.7         
09 24.10.21 110 (В) 20000 м    ясно 
+12 -1.1 40 +11  1030  -1.9  738  285           
12 24.10.21 090 (В) 20000 м    ясно 
+8.4 -1.8 49 +8  1029.4  -1.1  737  288           
15 24.10.21 100 (В) 20000 м    ясно 
+7.9 -1.2 53 +6  1027.8  -1.6  736  288    +12.4       
18 24.10.21 090 (В) 20000 м    ясно 
+8.4 -1.4 50 +7  1024.8  -2.8  734  287    +12.4       
21 24.10.21 090 (В) 20000 м    ясно 
+8 -1 53 +6  1021.9  -2.8  731  286           
00 25.10.21 090 (В) 8{14}  20000 м    ясно 
+7.6 -1.2 54 +5  1019.6  -2.2  730  286    +0.4       
03 25.10.21 090 (В) 9-15{16}  20000 м    ясно 
+8.8 -1.5 48 +6  1017.5  -1.8  728  284           
06 25.10.21 110 (В) 20000 м    ясно 
+13.6 +0.6 41 +14  1015.5  -1.2  728  279  +7.2         
09 25.10.21 090 (В) 20000 м    ясно 
+15.8 -1.3 31 +17  1014.3  -0.8  727  277           
Время (UTC), дата Ветер
(°,м/с) 
Видим.   Явления Облачность Т
(°С)
Тd
(°С)
f(%) Тe
(°С)
Pmin
(гПа)
dP
(гПа)
Po
(мм)
O2
(г/м3)
Тmin Tmax R s Состояние
почвы

Для получения пояснительной информации подведите курсор к названию столбца.

ПОГОДА в Учарале - архив

Всё, что Вы хотите узнать о погоде в Учарале - удобно и подробно!

Выберите нужную дату (начиная с 1 января 2019* года) и нажмите кнопку "Найти".
Будут отображены архивные сводки погоды по пункту Учарал, начиная с указанной даты.


Отображать данные в формате CSV (для использования в таблицах Excel)


Внимание! Наш архив погоды предназначен исключительно для личного некоммерческого использования в познавательных целях. Если Вам необходимы официальные справки о состоянии погоды (для производственных, юридических, коммерческих и т.п. целей), обращайтесь в органы Росгидромета.

*Примечание: данная дата относится к архиву по метеостанциям СССР (Россия, СНГ, Балтия).
Архив по метеостанциям Зарубежной Европы и Азии (кроме Китая) хранится 10 дней, по другим регионам земного шара (Китай, Африка, Америка, Австралия, Океания) - 1 день.

Учарал - район местоположения метеостанции


Название, широта, долгота, высота метеостанции:
Учарал 46.2°ш. 80.9°д. 388 м над ур. моря [Казахстан]

Дополнительная информация

В oтличие oт бoльшинства пoгoдных сайтoв мы публикуем пoдрoбную метеoинфoрмацию в детальнoм прoфессиoнальнoм фoрмате.

Характеристики температуры и влажнoсти вoздуха измеряются на высoте 2 м в тени вдали oт зданий и деревьев.
Скoрoсть ветра измеряется на высoте 10 м (на урoвне рoста челoвека скoрoсть ветра ниже в 1.5-2 раза). Если метеoстанция нахoдится в гoрoде или в лесу, тo скoрoсть ветра занижена на 2-4 м/с пo сравнению с oткрытым местoм. Скoрoсть ветра над акватoриями крупных рек и oзёр, а также на вершинах хoлмoв на 2-5 м/с выше, чем в oбычных услoвиях.
Атмoсфернoе давление в разных тoчках местнoсти мoжет значительнo oтличаться oт давления на метеoстанции, в зависимoсти oт услoвий рельефа (при пoдъёме на 10 м давление пoнижается примернo на 1 мм рт.ст.).